星链-36171(STARLINK-36171)

导读

STARLINK-36171是美国SpaceX星链星座的一员,于2025年12月10日发射升空。作为星链互联网星座组网卫星,它承担着为全球提供高速低延迟宽带互联网服务的使命,尤其覆盖偏远地区,助力缩小数字鸿沟,进一步扩充了星链星座的服务覆盖范围与网络容量。

基本信息
目录编号:
67027
目录名称:
STARLINK-36171
国际标识:
2025-293AA
轨道中心:
EARTH
卫星名称:
星链-36171
卫星全名:
星链-36171(STARLINK-36171)
卫星状态:
在轨 (已飞行269 天)
发射日期:
2025-12-10 UTC
国别 :
美国 (US)
星等 :
--
轨道信息
数据来源 国际轨道数据
星历时间: 2026-09-04T22:53:03+0800
10小时前
查看轨道信息
半长轴: 6950.179km
偏心率: 0.0003145
轨道倾角: 70.003°
近地点辐角 270.477°
升交点赤经 3.156°
平近点角 89.603°
近地点: 569.856km
远地点: 574.228km
周期: 96.107分钟
每日圈数: 14.983346
详细信息
固有亮度:
5
最大亮度:
2.5
卫星平台:
Starlink V1.0
覆盖范围:
全球
运营商:
太空探索技术公司
运营商所在国:
美国
制造商(研发单位):
太空探索技术公司
制造商所在国:
美国
使用方式:
暂无
卫星简介
Starlink 计划是 SpaceX 推出的全球卫星互联网项目,通过发射低轨道卫星,为全球尤其是偏远地区提供高速、低延迟的互联网服务。自 2019 年起,Starlink 已部署数千颗卫星,旨在缩小全球数字鸿沟,推动互联网普及。该项目还为军事、航空等行业提供通信支持,带来广泛经济效益。
2D轨道图
3D轨道图
轨道高度分析图
轨道倾角分析图
轨道综合分析图
查看轨道综合分析图
交会数据列表
事件ID 空间交会对象 最接近时刻(TCA) 交会距离 交会风险概率(CRP) 交会风险指数(CRI) 操作
CDM_260905-052504-435006-702722
2026-09-05T
05:25:03+0000
1.460 km
极远距离
5.13019E-6 低风险 0.49
CDM_260905-012806-702706-819722
2026-09-05T
01:28:42+0000
2.888 km
极远距离
1.275121E-6 低风险 0.37